Terminal Aerodrome Forecast
Issued by NWS Albuquerque, NM

Home | Current Version | Previous Version | Text Only | Print | Product List | Glossary On
Versions: 1 2 3 4 5 6 7 8 9 10 11 12 13
000
FTUS45 KABQ 020500
TAFABQ
TAF
KABQ 020522Z 0206/0306 35009KT P6SM SCT120
     FM021200 01011KT P6SM SKC
     FM021800 33010G17KT P6SM SKC=

USA.gov is the U.S. government's official web portal to all federal, state and local government web resources and services.